Change the Weather History Date:

Monday, December 9, 2013

  Actual Average (KISQ) Record (KISQ)
Temperature  
Mean Temperature 11 °F -  
Max Temperature 21 °F 31 °F 47 °F (1952)
Min Temperature 0 °F 18 °F -6 °F (1986)
Degree Days  
Heating Degree Days 54    
Moisture  
Dew Point 6 °F    
Average Humidity 67    
Maximum Humidity 84    
Minimum Humidity 53    
Precipitation  
Precipitation 0.08 in - - ()
Sea Level Pressure  
Sea Level Pressure 29.86 in    
Wind  
Wind Speed 5 mph (SW)    
Max Wind Speed 14 mph    
Max Gust Speed 22 mph    
Averages and records for this station are not official NWS values.
T = Trace of Precipitation, MM = Missing Value Source: NWS Daily Summary

Daily Weather History Graph

Daily Weather History Graph

Search for Another Location

Airport or City:

Trip Planner

Search our weather history database for the weather conditions in past years. The results will help you decide how hot, cold, wet, or windy it might be!

Date:

Astronomy

Dec. 09, 2013 Rise Set
Actual Time 8:18 AM EST 4:59 PM EST
Civil Twilight 7:43 AM EST 5:34 PM EST
Nautical Twilight 7:05 AM EST 6:12 PM EST
Astronomical Twilight 6:29 AM EST 6:49 PM EST
Moon 12:50 PM EST (12/9) 12:07 AM EST (12/9)
Length of Visible Light 9h 50m
Length of Day
8h 41m
Waxing Crescent, 51% of the Moon is Illuminated
Dec 9
Waxing Crescent
Dec 17
Full
Dec 25
Last Quarter
Jan 1
New
Jan 7
First Quarter

Hourly Weather History & Observations

Time (EST) Temp. Windchill Dew Point Humidity Pressure Visibility Wind Dir Wind Speed Gust Speed Precip Events Conditions
12:56 AM 18.0 °F - 12.9 °F 81% 30.03 in - Calm Calm - N/A   Unknown
1:56 AM 18.0 °F - 12.9 °F 81% 29.98 in - Calm Calm - 0.01 in   Unknown
2:56 AM 18.0 °F 12.7 °F 12.9 °F 81% 29.96 in - South 3.5 mph - 0.01 in   Unknown
3:56 AM 18.0 °F 12.7 °F 12.9 °F 81% 29.91 in - South 3.5 mph - 0.02 in   Unknown
4:56 AM 18.0 °F 12.7 °F 12.9 °F 81% 29.88 in - South 3.5 mph - 0.02 in   Unknown
5:56 AM 18.0 °F 9.8 °F 14.0 °F 84% 29.85 in - South 5.8 mph - 0.01 in   Unknown
6:56 AM 18.0 °F 9.8 °F 12.9 °F 81% 29.82 in - South 5.8 mph - 0.01 in   Unknown
7:56 AM 21.0 °F 10.6 °F 14.0 °F 74% 29.81 in - West 9.2 mph - N/A   Unknown
8:56 AM 19.9 °F 14.9 °F 14.0 °F 78% 29.79 in - South 3.5 mph - N/A   Unknown
9:56 AM 21.0 °F 12.4 °F 12.9 °F 71% 29.79 in - WSW 6.9 mph 18.4 mph N/A   Unknown
10:56 AM 19.9 °F 11.1 °F 10.9 °F 68% 29.80 in - WSW 6.9 mph - N/A   Unknown
11:56 AM 21.0 °F 13.4 °F 12.0 °F 68% 29.78 in - Variable 5.8 mph - N/A   Unknown
12:56 PM 19.9 °F 9.3 °F 9.0 °F 62% 29.75 in - West 9.2 mph - N/A   Unknown
1:56 PM 19.9 °F 10.1 °F 7.0 °F 57% 29.75 in - West 8.1 mph 17.3 mph N/A   Unknown
2:56 PM 19.0 °F 9.0 °F 5.0 °F 54% 29.75 in - WSW 8.1 mph 17.3 mph N/A   Unknown
3:56 PM 18.0 °F 5.4 °F 5.0 °F 57% 29.77 in - West 11.5 mph 18.4 mph N/A   Unknown
4:56 PM 16.0 °F 6.3 °F 3.0 °F 57% 29.81 in - Variable 6.9 mph - N/A   Unknown
5:56 PM 15.1 °F 0.5 °F 1.0 °F 54% 29.84 in - West 13.8 mph 21.9 mph N/A   Unknown
6:56 PM 10.9 °F -0.8 °F -2.0 °F 56% 29.89 in - West 8.1 mph 18.4 mph N/A   Unknown
7:56 PM 8.1 °F -5.3 °F -4.0 °F 58% 29.91 in - WSW 9.2 mph 18.4 mph N/A   Unknown
8:56 PM 6.1 °F -7.8 °F -8.0 °F 53% 29.95 in - WSW 9.2 mph 17.3 mph N/A   Unknown
9:56 PM 3.9 °F -5.3 °F -9.0 °F 55% 29.98 in - WSW 4.6 mph 18.4 mph N/A   Unknown
10:56 PM 1.9 °F -11.8 °F -9.9 °F 58% 29.98 in - SW 8.1 mph 17.3 mph N/A   Unknown
11:56 PM -0.0 °F -16.3 °F -11.0 °F 60% 29.98 in - SW 10.4 mph - N/A   Unknown